Details From URKK - Pashkovskiy
To URSS - Sochi
Flight Number -
Tags Generated
Created
Modified
Stats Distance 102 nm / 188 km
Max Altitude 0 ft / 0 m
Waypoints 2
Social Downloads 0
Likes 0
Share VATSIM

Download

Looking for another format? Having issues loading an existing format? Contact us
Advertisement - Login to hide

Notes

Generated

Route

URKK URSS

ID Type Via Altitude Latitude Longitude Leg Dist Tot Dist Heading (true) Name
O URKK APT - 0 ft / 0 m 45.02906˚ 39.14142˚ - 0 nm - -
O URSS APT - 0 ft / 0 m 43.43576˚ 39.94578˚ 101 nm 101 nm 160° / 160° Sochi

Altitude Profile

Advertisement - Login to hide

URKK

Details ICAO URKK (KRR)
Name PASHKOVSKIY
Region Russia
Timezone Europe/Moscow (UTC+3.0)
Stats Elevation 118 ft / 36 m (AMSL)
Location 45.034644° 39.170454°
Runways 2
Magnetic Variation 7.356° E

METAR

URKK 161530Z 07002MPS CAVOK 07/04 Q1017 R23L/CLRD70 NOSIG RMK QFE759

Decode

TAF

TAF URKK 161359Z 1615/1715 11003G08MPS 3100 BR SCT011 TEMPO 1618/1708 0300 FZFG BKN002 FM170900 08003G08MPS 9999 SCT020CB

Decode

Departure Runways

ID Width Length Bearing (true) Bearing (mag) Surface Threshold Offset Overrun Length
05L 160 ft / 49 m 7,177 ft / 2,187 m 52.37° 45.01° Asphalt 0 ft / 0 m 160 ft / 49 m
05R 145 ft / 44 m 9,822 ft / 2,994 m 52.45° 45.09° Concrete 0 ft / 0 m 160 ft / 49 m
23L 145 ft / 44 m 9,822 ft / 2,994 m 232.47° 225.11° Concrete 0 ft / 0 m 160 ft / 49 m
23R 160 ft / 49 m 7,177 ft / 2,187 m 232.38° 225.02° Asphalt 0 ft / 0 m 160 ft / 49 m

URSS

Details ICAO URSS (AER)
Name Sochi
Region Russia
Timezone Europe/Moscow (UTC+3.0)
Stats Elevation 89 ft / 27 m (AMSL)
Location 43.444749° 39.947302°
Runways 2
Magnetic Variation 6.963° E

METAR

URSS 161530Z 06005MPS 9999 NSC 11/02 Q1017 R02/090070 R06/090070 NOSIG RMK R06/08006MPS QFE761

Decode

TAF

TAF URSS 161356Z 1615/1715 06006MPS 9999 SCT100 TEMPO 1703/1707 04007G12MPS BECMG 1707/1709 16005G10MPS SCT030 BKN100

Decode

Destination Runways

ID Width Length Bearing (true) Bearing (mag) Surface Threshold Offset Overrun Length
02 161 ft / 49 m 7,267 ft / 2,215 m 28.98° 22.02° Concrete 0 ft / 0 m 0 ft / 0 m
06 164 ft / 50 m 9,531 ft / 2,905 m 64.90° 57.94° Concrete 262 ft / 80 m 0 ft / 0 m
20 161 ft / 49 m 7,267 ft / 2,215 m 208.99° 202.03° Concrete 0 ft / 0 m 0 ft / 0 m
24 164 ft / 50 m 9,531 ft / 2,905 m 244.92° 237.96° Concrete 0 ft / 0 m 0 ft / 0 m

Approach Navaids

Runway Type Ident Frequency Range Bearing (true) Bearing (mag) Slope Elevation
02 Localiser IAD 110.50 MHz 18 nm / 33 km 30.95° 23.99° - 89 ft / 27 m (AMSL)
02 Glidescope IAD 110.50 MHz 10 nm / 19 km 28.98° 22.02° 2.80° 89 ft / 27 m (AMSL)
06 Localiser ISO 111.10 MHz 18 nm / 33 km 65.82° 58.86° - 89 ft / 27 m (AMSL)
06 Glidescope ISO 111.10 MHz 10 nm / 19 km 64.91° 57.95° 2.80° 89 ft / 27 m (AMSL)

Popular Alternatives